TimeEDT,TemperatureF,Dew PointF,Humidity,Sea Level PressureIn,VisibilityMPH,Wind Direction,Wind SpeedMPH,Gust SpeedMPH,PrecipitationIn,Events,Conditions,WindDirDegrees,DateUTC
12:53 AM,62.1,57.9,86,30.13,10.0,Calm,Calm,-,N/A,,Clear,0,2013-04-07 04:53:00
1:53 AM,59.0,57.0,93,30.11,10.0,NE,3.5,-,N/A,,Clear,50,2013-04-07 05:53:00
2:53 AM,57.9,55.9,93,30.09,10.0,ENE,3.5,-,N/A,,Clear,60,2013-04-07 06:53:00
3:53 AM,59.0,57.0,93,30.07,10.0,ENE,4.6,-,N/A,,Scattered Clouds,60,2013-04-07 07:53:00
4:53 AM,59.0,57.0,93,30.08,10.0,NE,3.5,-,N/A,,Mostly Cloudy,50,2013-04-07 08:53:00
5:53 AM,57.9,57.0,97,30.09,9.0,ENE,5.8,-,N/A,,Mostly Cloudy,60,2013-04-07 09:53:00
6:53 AM,60.1,57.9,93,30.11,9.0,NE,6.9,-,N/A,,Mostly Cloudy,50,2013-04-07 10:53:00
7:53 AM,62.1,60.1,93,30.14,9.0,NE,6.9,-,N/A,,Scattered Clouds,50,2013-04-07 11:53:00
8:53 AM,64.9,61.0,87,30.15,10.0,ENE,8.1,-,N/A,,Clear,60,2013-04-07 12:53:00
9:53 AM,72.0,60.1,66,30.16,10.0,East,11.5,-,N/A,,Clear,90,2013-04-07 13:53:00
10:53 AM,77.0,57.9,52,30.17,10.0,East,10.4,-,N/A,,Clear,90,2013-04-07 14:53:00
11:53 AM,78.1,59.0,52,30.16,10.0,ESE,11.5,19.6,N/A,,Partly Cloudy,120,2013-04-07 15:53:00
12:53 PM,79.0,57.9,48,30.15,10.0,ESE,11.5,-,N/A,,Scattered Clouds,110,2013-04-07 16:53:00
1:53 PM,82.0,55.0,39,30.13,10.0,Variable,3.5,-,N/A,,Scattered Clouds,0,2013-04-07 17:53:00
2:53 PM,82.0,55.0,39,30.10,10.0,Variable,3.5,-,N/A,,Mostly Cloudy,0,2013-04-07 18:53:00
3:53 PM,81.0,54.0,39,30.09,10.0,ESE,6.9,-,N/A,,Scattered Clouds,110,2013-04-07 19:53:00
4:53 PM,84.0,54.0,35,30.07,10.0,East,6.9,-,N/A,,Partly Cloudy,80,2013-04-07 20:53:00
5:53 PM,82.9,55.0,38,30.06,10.0,ESE,10.4,-,N/A,,Mostly Cloudy,120,2013-04-07 21:53:00
6:53 PM,79.0,57.9,48,30.07,10.0,SE,3.5,-,N/A,,Scattered Clouds,130,2013-04-07 22:53:00
7:53 PM,77.0,60.1,56,30.07,10.0,ESE,6.9,-,N/A,,Overcast,120,2013-04-07 23:53:00
8:53 PM,73.9,62.1,66,30.10,10.0,East,6.9,-,N/A,,Scattered Clouds,100,2013-04-08 00:53:00
9:53 PM,72.0,62.1,71,30.12,10.0,ESE,9.2,-,N/A,,Scattered Clouds,110,2013-04-08 01:53:00
10:53 PM,71.1,61.0,70,30.13,10.0,ESE,9.2,-,N/A,,Overcast,120,2013-04-08 02:53:00
11:53 PM,69.1,60.1,73,30.13,10.0,ESE,8.1,-,N/A,,Clear,110,2013-04-08 03:53:00